Вернуться в каталог

STARLINK-31486

АктивенСвязьVLEO
NORAD 59181·PAYLOAD·🇺🇸 United States

Запущен Mar 10, 2024 с Cape Canaveral Space Force Station

Loading…

Ближайшие Пролёты (ближайшие 24 часа)

TLE

СвежийSource: CelesTrak SupGP

Эпоха: Sep 15, 2026, 02:49 UTC

1 59181C 24045D   26258.11784722  .00018918  00000+0  68509-3 0  2589
2 59181  43.0026  99.5099 0001355 275.1825 295.9517 15.27575260    15

Отслеживайте STARLINK-31486 в реальном времени с AllMySat

Download on the App Store